Time,TemperatureF,DewpointF,PressureIn,WindDirection,WindDirectionDegrees,WindSpeedMPH,WindSpeedGustMPH,Humidity,HourlyPrecipIn,Conditions,Clouds,dailyrainin,SoftwareType,DateUTC
2013-01-05 00:00:00,24.8,21.2,30.19,West,262,8.0,14.0,86,0.00,CLR,SKC,0.00,WeatherDisplay:10.37,2013-01-05 05:00:00,
2013-01-05 00:10:00,25.6,22.0,30.19,West,263,3.0,13.0,86,0.00,CLR,SKC,0.00,WeatherDisplay:10.37,2013-01-05 05:10:00,
2013-01-05 00:20:00,25.5,22.1,30.19,WSW,257,8.0,13.0,87,0.00,CLR,SKC,0.00,WeatherDisplay:10.37,2013-01-05 05:20:00,
2013-01-05 00:30:00,25.0,21.7,30.19,West,265,5.0,13.0,87,0.00,CLR,SKC,0.00,WeatherDisplay:10.37,2013-01-05 05:30:00,
2013-01-05 00:40:00,24.8,21.4,30.19,West,263,3.0,14.0,87,0.00,CLR,SKC,0.00,WeatherDisplay:10.37,2013-01-05 05:40:00,
2013-01-05 00:50:00,24.6,21.5,30.19,WSW,258,9.0,14.0,88,0.00,CLR,SKC,0.00,WeatherDisplay:10.37,2013-01-05 05:50:00,
2013-01-05 01:00:00,24.9,21.8,30.19,West,264,7.0,14.0,88,0.00,CLR,SKC,0.00,WeatherDisplay:10.37,2013-01-05 06:00:00,
2013-01-05 01:10:00,24.8,22.0,30.19,West,260,8.0,14.0,89,0.00,CLR,SKC,0.00,WeatherDisplay:10.37,2013-01-05 06:10:00,
2013-01-05 01:20:00,24.7,22.1,30.19,West,263,8.0,13.0,90,0.00,CLR,SKC,0.00,WeatherDisplay:10.37,2013-01-05 06:20:00,
2013-01-05 01:30:00,24.9,22.4,30.19,WSW,254,7.0,14.0,90,0.00,CLR,SKC,0.00,WeatherDisplay:10.37,2013-01-05 06:30:00,
2013-01-05 01:40:00,24.8,22.3,30.20,West,260,7.0,14.0,90,0.00,CLR,SKC,0.00,WeatherDisplay:10.37,2013-01-05 06:40:00,
2013-01-05 01:50:00,24.9,22.4,30.20,West,265,6.0,13.0,90,0.00,CLR,SKC,0.00,WeatherDisplay:10.37,2013-01-05 06:50:00,
2013-01-05 02:00:00,24.7,22.2,30.20,West,268,8.0,16.0,90,0.00,CLR,SKC,0.00,WeatherDisplay:10.37,2013-01-05 07:00:00,
2013-01-05 02:10:00,25.3,22.7,30.20,West,270,7.0,12.0,90,0.00,CLR,SKC,0.00,WeatherDisplay:10.37,2013-01-05 07:10:00,
2013-01-05 02:20:00,25.2,22.9,30.19,West,272,10.0,16.0,91,0.00,CLR,SKC,0.00,WeatherDisplay:10.37,2013-01-05 07:20:00,
2013-01-05 02:30:00,25.6,23.0,30.19,West,269,6.0,14.0,90,0.00,CLR,SKC,0.00,WeatherDisplay:10.37,2013-01-05 07:30:00,
2013-01-05 02:40:00,25.2,22.9,30.20,West,266,3.0,14.0,91,0.00,CLR,SKC,0.00,WeatherDisplay:10.37,2013-01-05 07:40:00,
2013-01-05 02:50:00,24.7,22.5,30.20,West,266,6.0,13.0,91,0.00,CLR,SKC,0.00,WeatherDisplay:10.37,2013-01-05 07:50:00,
2013-01-05 03:00:00,24.8,22.5,30.21,West,269,7.0,14.0,91,0.00,CLR,SKC,0.00,WeatherDisplay:10.37,2013-01-05 08:00:00,
2013-01-05 03:10:00,25.4,23.2,30.20,West,262,6.0,11.0,91,0.00,CLR,SKC,0.00,WeatherDisplay:10.37,2013-01-05 08:10:00,
2013-01-05 03:20:00,25.3,23.0,30.20,West,265,8.0,13.0,91,0.00,CLR,SKC,0.00,WeatherDisplay:10.37,2013-01-05 08:20:00,
2013-01-05 03:30:00,25.6,23.1,30.20,West,262,6.0,13.0,90,0.00,CLR,SKC,0.00,WeatherDisplay:10.37,2013-01-05 08:30:00,
2013-01-05 03:40:00,25.7,23.1,30.20,West,269,6.0,13.0,90,0.00,CLR,SKC,0.00,WeatherDisplay:10.37,2013-01-05 08:40:00,
2013-01-05 03:50:00,26.4,23.9,30.20,West,262,7.0,12.0,90,0.00,CLR,SKC,0.00,WeatherDisplay:10.37,2013-01-05 08:50:00,
2013-01-05 04:00:00,26.1,23.3,30.21,West,269,8.0,15.0,89,0.00,CLR,SKC,0.00,WeatherDisplay:10.37,2013-01-05 09:00:00,
2013-01-05 04:09:00,25.5,22.7,30.21,West,262,8.0,13.0,89,0.00,CLR,SKC,0.00,WeatherDisplay:10.37,2013-01-05 09:09:00,
2013-01-05 04:19:00,26.0,23.2,30.22,West,270,9.0,14.0,89,0.00,CLR,SKC,0.00,WeatherDisplay:10.37,2013-01-05 09:19:00,
2013-01-05 04:29:00,25.9,23.1,30.21,WSW,258,6.0,12.0,89,0.00,CLR,SKC,0.00,WeatherDisplay:10.37,2013-01-05 09:29:00,
2013-01-05 04:39:00,25.1,22.8,30.21,WSW,258,0.0,10.0,91,0.00,CLR,SKC,0.00,WeatherDisplay:10.37,2013-01-05 09:39:00,
2013-01-05 04:49:00,24.9,22.6,30.21,WSW,248,2.0,8.0,91,0.00,CLR,SKC,0.00,WeatherDisplay:10.37,2013-01-05 09:49:00,
2013-01-05 04:59:00,25.0,23.0,30.20,WSW,249,2.0,10.0,92,0.00,CLR,SKC,0.00,WeatherDisplay:10.37,2013-01-05 09:59:00,
2013-01-05 05:09:00,25.0,23.0,30.21,WSW,257,3.0,11.0,92,0.00,CLR,SKC,0.00,WeatherDisplay:10.37,2013-01-05 10:09:00,
2013-01-05 05:19:00,23.7,21.9,30.21,WSW,242,0.0,9.0,93,0.00,CLR,SKC,0.00,WeatherDisplay:10.37,2013-01-05 10:19:00,
2013-01-05 05:29:00,23.9,22.2,30.21,WSW,254,0.0,9.0,93,0.00,CLR,SKC,0.00,WeatherDisplay:10.37,2013-01-05 10:29:00,
2013-01-05 05:39:00,24.4,22.7,30.21,WSW,256,2.0,10.0,93,0.00,CLR,SKC,0.00,WeatherDisplay:10.37,2013-01-05 10:39:00,
2013-01-05 05:49:00,23.8,22.3,30.21,SW,235,0.0,12.0,94,0.00,CLR,SKC,0.00,WeatherDisplay:10.37,2013-01-05 10:49:00,
2013-01-05 05:59:00,23.9,22.4,30.21,SW,232,2.0,9.0,94,0.00,CLR,SKC,0.00,WeatherDisplay:10.37,2013-01-05 10:59:00,
2013-01-05 06:09:00,23.8,22.6,30.21,WSW,237,0.0,8.0,95,0.00,CLR,SKC,0.00,WeatherDisplay:10.37,2013-01-05 11:09:00,
2013-01-05 06:19:00,24.0,22.8,30.22,SW,233,0.0,0.0,95,0.00,CLR,SKC,0.00,WeatherDisplay:10.37,2013-01-05 11:19:00,
2013-01-05 06:29:00,23.0,21.8,30.21,SW,233,0.0,0.0,95,0.00,CLR,SKC,0.00,WeatherDisplay:10.37,2013-01-05 11:29:00,
2013-01-05 06:40:00,22.7,21.7,30.22,SW,233,0.0,0.0,96,0.00,CLR,SKC,0.00,WeatherDisplay:10.37,2013-01-05 11:40:00,
2013-01-05 06:50:00,21.6,20.9,30.21,SW,233,0.0,0.0,97,0.00,CLR,SKC,0.00,WeatherDisplay:10.37,2013-01-05 11:50:00,
2013-01-05 07:00:00,21.9,21.2,30.22,SW,233,0.0,0.0,97,0.00,CLR,SKC,0.00,WeatherDisplay:10.37,2013-01-05 12:00:00,
2013-01-05 07:10:00,21.9,21.2,30.22,SW,235,5.0,8.0,97,0.00,CLR,SKC,0.00,WeatherDisplay:10.37,2013-01-05 12:10:00,
2013-01-05 07:20:00,22.0,21.0,30.23,SW,234,6.0,12.0,96,0.00,CLR,SKC,0.00,WeatherDisplay:10.37,2013-01-05 12:20:00,
2013-01-05 07:30:00,21.6,20.9,30.23,SW,224,0.0,10.0,97,0.00,CLR,SKC,0.00,WeatherDisplay:10.37,2013-01-05 12:30:00,
2013-01-05 07:40:00,21.2,20.7,30.22,SW,230,0.0,8.0,98,0.00,CLR,SKC,0.00,WeatherDisplay:10.37,2013-01-05 12:40:00,
2013-01-05 07:50:00,22.0,21.5,30.22,SW,230,0.0,0.0,98,0.00,CLR,SKC,0.00,WeatherDisplay:10.37,2013-01-05 12:50:00,
2013-01-05 08:00:00,21.6,21.2,30.22,SW,230,0.0,0.0,98,0.00,CLR,SKC,0.00,WeatherDisplay:10.37,2013-01-05 13:00:00,
2013-01-05 08:10:00,21.8,21.3,30.22,SW,225,1.0,7.0,98,0.00,CLR,SKC,0.00,WeatherDisplay:10.37,2013-01-05 13:10:00,
2013-01-05 08:20:00,21.1,20.7,30.22,SW,220,0.0,6.0,98,0.00,CLR,SKC,0.00,WeatherDisplay:10.37,2013-01-05 13:20:00,
2013-01-05 08:30:00,21.5,20.8,30.22,SW,216,7.0,10.0,97,0.00,CLR,SKC,0.00,WeatherDisplay:10.37,2013-01-05 13:30:00,
2013-01-05 08:40:00,23.2,21.7,30.22,SSW,201,1.0,8.0,94,0.00,CLR,SKC,0.00,WeatherDisplay:10.37,2013-01-05 13:40:00,
2013-01-05 08:50:00,22.5,21.0,30.22,SSW,205,0.0,9.0,94,0.00,CLR,SKC,0.00,WeatherDisplay:10.37,2013-01-05 13:50:00,
2013-01-05 09:00:00,23.3,21.8,30.22,SSW,202,5.0,9.0,94,0.00,CLR,SKC,0.00,WeatherDisplay:10.37,2013-01-05 14:00:00,
2013-01-05 09:10:00,23.1,21.1,30.22,SW,217,2.0,10.0,92,0.00,CLR,SKC,0.00,WeatherDisplay:10.37,2013-01-05 14:10:00,
2013-01-05 09:20:00,24.0,22.6,30.22,SSW,208,1.0,9.0,94,0.00,CLR,SKC,0.00,WeatherDisplay:10.37,2013-01-05 14:20:00,
2013-01-05 09:30:00,23.7,21.7,30.22,SSW,213,5.0,10.0,92,0.00,CLR,SKC,0.00,WeatherDisplay:10.37,2013-01-05 14:30:00,
2013-01-05 09:40:00,24.1,22.1,30.22,SSW,211,6.0,10.0,92,0.00,CLR,SKC,0.00,WeatherDisplay:10.37,2013-01-05 14:40:00,
2013-01-05 09:50:00,25.4,23.1,30.22,SW,224,0.0,8.0,91,0.00,CLR,SKC,0.00,WeatherDisplay:10.37,2013-01-05 14:50:00,
2013-01-05 10:00:00,25.7,23.4,30.23,SW,226,3.0,9.0,91,0.00,CLR,SKC,0.00,WeatherDisplay:10.37,2013-01-05 15:00:00,
2013-01-05 10:10:00,26.1,23.8,30.22,WSW,243,2.0,13.0,91,0.00,CLR,SKC,0.00,WeatherDisplay:10.37,2013-01-05 15:10:00,
2013-01-05 10:20:00,26.7,24.1,30.22,SSW,198,0.0,10.0,90,0.00,CLR,SKC,0.00,WeatherDisplay:10.37,2013-01-05 15:20:00,
2013-01-05 10:30:00,26.5,23.4,30.22,SW,223,6.0,10.0,88,0.00,CLR,SKC,0.00,WeatherDisplay:10.37,2013-01-05 15:30:00,
2013-01-05 10:40:00,27.0,24.2,30.22,SW,234,1.0,12.0,89,0.00,CLR,SKC,0.00,WeatherDisplay:10.37,2013-01-05 15:40:00,
2013-01-05 10:50:00,26.9,23.6,30.22,SW,219,3.0,10.0,87,0.00,CLR,SKC,0.00,WeatherDisplay:10.37,2013-01-05 15:50:00,
2013-01-05 11:00:00,28.3,24.6,30.21,SW,219,0.0,12.0,86,0.00,CLR,SKC,0.00,WeatherDisplay:10.37,2013-01-05 16:00:00,
2013-01-05 11:10:00,29.3,25.3,30.22,WSW,237,0.0,10.0,85,0.00,CLR,SKC,0.00,WeatherDisplay:10.37,2013-01-05 16:10:00,
2013-01-05 11:20:00,29.2,24.9,30.21,SW,223,0.0,12.0,84,0.00,CLR,SKC,0.00,WeatherDisplay:10.37,2013-01-05 16:20:00,
2013-01-05 11:30:00,29.6,24.7,30.20,SSW,210,1.0,10.0,82,0.00,CLR,SKC,0.00,WeatherDisplay:10.37,2013-01-05 16:30:00,
2013-01-05 11:40:00,29.8,24.4,30.20,WSW,239,7.0,12.0,80,0.00,CLR,SKC,0.00,WeatherDisplay:10.37,2013-01-05 16:40:00,
2013-01-05 11:50:00,31.7,26.2,30.18,WSW,248,0.0,10.0,80,0.00,CLR,SKC,0.00,WeatherDisplay:10.37,2013-01-05 16:50:00,
2013-01-05 12:00:00,30.7,25.0,30.18,SW,214,5.0,13.0,79,0.00,CLR,SKC,0.00,WeatherDisplay:10.37,2013-01-05 17:00:00,
2013-01-05 12:10:00,31.1,24.7,30.18,SW,214,6.0,10.0,77,0.00,CLR,SKC,0.00,WeatherDisplay:10.37,2013-01-05 17:10:00,
2013-01-05 12:20:00,31.1,25.3,30.16,SW,231,5.0,13.0,79,0.00,CLR,SKC,0.00,WeatherDisplay:10.37,2013-01-05 17:20:00,
2013-01-05 12:30:00,31.1,25.3,30.15,SW,226,3.0,13.0,79,0.00,CLR,SKC,0.00,WeatherDisplay:10.37,2013-01-05 17:30:00,
2013-01-05 12:40:00,31.7,26.6,30.15,SW,235,0.0,10.0,81,0.00,CLR,SKC,0.00,WeatherDisplay:10.37,2013-01-05 17:40:00,
2013-01-05 12:50:00,31.0,25.5,30.15,SW,233,8.0,13.0,80,0.00,CLR,SKC,0.00,WeatherDisplay:10.37,2013-01-05 17:50:00,
2013-01-05 13:00:00,31.7,26.5,30.14,WSW,238,2.0,13.0,81,0.00,CLR,SKC,0.00,WeatherDisplay:10.37,2013-01-05 18:00:00,
2013-01-05 13:10:00,32.0,26.5,30.14,SW,227,0.0,9.0,80,0.00,CLR,SKC,0.00,WeatherDisplay:10.37,2013-01-05 18:10:00,
2013-01-05 13:20:00,32.9,27.1,30.13,WSW,246,3.0,12.0,79,0.00,CLR,SKC,0.00,WeatherDisplay:10.37,2013-01-05 18:20:00,
2013-01-05 13:30:00,33.3,26.6,30.12,SW,236,3.0,12.0,76,0.00,CLR,SKC,0.00,WeatherDisplay:10.37,2013-01-05 18:30:00,
2013-01-05 13:40:00,33.1,25.7,30.12,WSW,243,7.0,17.0,74,0.00,CLR,SKC,0.00,WeatherDisplay:10.37,2013-01-05 18:40:00,
2013-01-05 13:50:00,33.7,25.3,30.11,SW,236,10.0,18.0,71,0.00,CLR,SKC,0.00,WeatherDisplay:10.37,2013-01-05 18:50:00,
2013-01-05 14:00:00,34.7,26.2,30.10,SW,230,6.0,12.0,71,0.00,CLR,SKC,0.00,WeatherDisplay:10.37,2013-01-05 19:00:00,
2013-01-05 14:10:00,34.0,25.2,30.10,SW,224,8.0,15.0,70,0.00,CLR,SKC,0.00,WeatherDisplay:10.37,2013-01-05 19:10:00,
2013-01-05 14:20:00,34.3,25.2,30.10,WSW,253,12.0,15.0,69,0.00,CLR,SKC,0.00,WeatherDisplay:10.37,2013-01-05 19:20:00,
2013-01-05 14:30:00,34.1,26.4,30.10,WSW,244,1.0,15.0,73,0.00,CLR,SKC,0.00,WeatherDisplay:10.37,2013-01-05 19:30:00,
2013-01-05 14:40:00,35.3,26.1,30.09,SW,223,1.0,13.0,69,0.00,CLR,SKC,0.00,WeatherDisplay:10.37,2013-01-05 19:40:00,
2013-01-05 14:50:00,35.5,26.4,30.09,SW,227,3.0,18.0,69,0.00,CLR,SKC,0.00,WeatherDisplay:10.37,2013-01-05 19:50:00,
2013-01-05 15:00:00,35.1,26.0,30.09,SW,228,2.0,17.0,69,0.00,CLR,SKC,0.00,WeatherDisplay:10.37,2013-01-05 20:00:00,
2013-01-05 15:10:00,36.3,26.7,30.08,SW,231,3.0,13.0,68,0.00,CLR,SKC,0.00,WeatherDisplay:10.37,2013-01-05 20:10:00,
2013-01-05 15:20:00,35.3,25.8,30.08,SW,221,6.0,12.0,68,0.00,CLR,SKC,0.00,WeatherDisplay:10.37,2013-01-05 20:20:00,
2013-01-05 15:30:00,36.7,27.5,30.08,WSW,237,3.0,12.0,69,0.00,CLR,SKC,0.00,WeatherDisplay:10.37,2013-01-05 20:30:00,
2013-01-05 15:40:00,36.2,26.7,30.08,SW,222,3.0,10.0,68,0.00,CLR,SKC,0.00,WeatherDisplay:10.37,2013-01-05 20:40:00,
2013-01-05 15:50:00,36.6,27.4,30.09,WSW,239,3.0,14.0,69,0.00,CLR,SKC,0.00,WeatherDisplay:10.37,2013-01-05 20:50:00,
2013-01-05 16:00:00,36.0,27.2,30.09,WSW,246,3.0,14.0,70,0.00,CLR,SKC,0.00,WeatherDisplay:10.37,2013-01-05 21:00:00,
2013-01-05 16:10:00,35.5,27.4,30.08,SW,236,6.0,12.0,72,0.00,CLR,SKC,0.00,WeatherDisplay:10.37,2013-01-05 21:10:00,
2013-01-05 16:20:00,35.0,27.6,30.08,WSW,238,3.0,15.0,74,0.00,CLR,SKC,0.00,WeatherDisplay:10.37,2013-01-05 21:20:00,
2013-01-05 16:30:00,35.0,27.2,30.07,SW,227,8.0,14.0,73,0.00,CLR,SKC,0.00,WeatherDisplay:10.37,2013-01-05 21:30:00,
2013-01-05 16:39:00,35.6,27.8,30.07,SW,231,5.0,12.0,73,0.00,CLR,SKC,0.00,WeatherDisplay:10.37,2013-01-05 21:39:00,
2013-01-05 16:49:00,35.1,27.6,30.06,SW,231,6.0,14.0,74,0.00,CLR,SKC,0.00,WeatherDisplay:10.37,2013-01-05 21:49:00,
2013-01-05 16:59:00,34.8,27.7,30.06,SW,220,2.0,14.0,75,0.00,CLR,SKC,0.00,WeatherDisplay:10.37,2013-01-05 21:59:00,
2013-01-05 17:09:00,34.8,27.4,30.06,SW,227,9.0,14.0,74,0.00,CLR,SKC,0.00,WeatherDisplay:10.37,2013-01-05 22:09:00,
2013-01-05 17:19:00,35.3,28.2,30.07,SW,230,6.0,15.0,75,0.00,CLR,SKC,0.00,WeatherDisplay:10.37,2013-01-05 22:19:00,
2013-01-05 17:29:00,35.5,28.4,30.07,SW,227,7.0,16.0,75,0.00,CLR,SKC,0.00,WeatherDisplay:10.37,2013-01-05 22:29:00,
2013-01-05 17:39:00,35.1,28.3,30.06,SW,232,7.0,14.0,76,0.00,CLR,SKC,0.00,WeatherDisplay:10.37,2013-01-05 22:39:00,
2013-01-05 17:49:00,35.3,28.5,30.07,SW,230,7.0,14.0,76,0.00,CLR,SKC,0.00,WeatherDisplay:10.37,2013-01-05 22:49:00,
2013-01-05 17:59:00,35.1,27.9,30.07,WSW,237,8.0,14.0,75,0.00,CLR,SKC,0.00,WeatherDisplay:10.37,2013-01-05 22:59:00,
2013-01-05 18:09:00,35.3,28.1,30.08,WSW,239,7.0,14.0,75,0.00,CLR,SKC,0.00,WeatherDisplay:10.37,2013-01-05 23:09:00,
2013-01-05 18:19:00,36.0,28.8,30.08,WSW,239,7.0,14.0,75,0.00,CLR,SKC,0.00,WeatherDisplay:10.37,2013-01-05 23:19:00,
2013-01-05 18:29:00,35.0,28.2,30.07,SW,232,7.0,18.0,76,0.00,CLR,SKC,0.00,WeatherDisplay:10.37,2013-01-05 23:29:00,
2013-01-05 18:40:00,36.1,29.2,30.07,SW,235,3.0,17.0,76,0.00,CLR,SKC,0.00,WeatherDisplay:10.37,2013-01-05 23:40:00,
2013-01-05 18:50:00,35.9,28.8,30.08,WSW,251,5.0,14.0,75,0.00,CLR,SKC,0.00,WeatherDisplay:10.37,2013-01-05 23:50:00,
2013-01-05 19:00:00,36.6,30.1,30.08,WSW,250,7.0,14.0,77,0.00,CLR,SKC,0.00,WeatherDisplay:10.37,2013-01-06 00:00:00,
2013-01-05 19:10:00,35.5,29.3,30.08,West,259,5.0,13.0,78,0.00,CLR,SKC,0.00,WeatherDisplay:10.37,2013-01-06 00:10:00,
2013-01-05 19:20:00,36.1,30.5,30.08,West,260,7.0,18.0,80,0.00,CLR,SKC,0.00,WeatherDisplay:10.37,2013-01-06 00:20:00,
2013-01-05 19:30:00,34.8,30.2,30.08,WSW,255,8.0,14.0,83,0.00,CLR,SKC,0.00,WeatherDisplay:10.37,2013-01-06 00:30:00,
2013-01-05 19:40:00,35.1,31.9,30.07,WSW,252,6.0,15.0,88,0.00,CLR,SKC,0.00,WeatherDisplay:10.37,2013-01-06 00:40:00,
2013-01-05 19:50:00,34.4,31.7,30.07,WSW,252,2.0,13.0,90,0.00,CLR,SKC,0.00,WeatherDisplay:10.37,2013-01-06 00:50:00,
2013-01-05 20:00:00,34.1,32.0,30.07,WSW,254,12.0,18.0,92,0.00,CLR,SKC,0.00,WeatherDisplay:10.37,2013-01-06 01:00:00,
2013-01-05 20:10:00,34.2,32.1,30.07,West,259,6.0,12.0,92,0.00,CLR,SKC,0.00,WeatherDisplay:10.37,2013-01-06 01:10:00,
2013-01-05 20:20:00,33.8,32.0,30.07,WSW,258,7.0,13.0,93,0.00,CLR,SKC,0.00,WeatherDisplay:10.37,2013-01-06 01:20:00,
2013-01-05 20:30:00,33.3,31.5,30.06,WSW,246,7.0,11.0,93,0.00,CLR,SKC,0.00,WeatherDisplay:10.37,2013-01-06 01:30:00,
2013-01-05 20:40:00,33.7,32.2,30.05,WSW,247,6.0,12.0,94,0.00,CLR,SKC,0.00,WeatherDisplay:10.37,2013-01-06 01:40:00,
2013-01-05 20:50:00,33.5,32.0,30.06,WSW,239,2.0,10.0,94,0.00,CLR,SKC,0.00,WeatherDisplay:10.37,2013-01-06 01:50:00,
2013-01-05 21:00:00,33.4,31.6,30.06,WSW,254,7.0,13.0,93,0.00,CLR,SKC,0.00,WeatherDisplay:10.37,2013-01-06 02:00:00,
2013-01-05 21:10:00,34.1,32.2,30.05,WSW,247,6.0,14.0,93,0.00,CLR,SKC,0.00,WeatherDisplay:10.37,2013-01-06 02:10:00,
2013-01-05 21:20:00,33.5,31.7,30.05,WSW,243,8.0,15.0,93,0.00,CLR,SKC,0.00,WeatherDisplay:10.37,2013-01-06 02:20:00,
2013-01-05 21:30:00,33.1,31.3,30.05,WSW,238,8.0,16.0,93,0.00,CLR,SKC,0.00,WeatherDisplay:10.37,2013-01-06 02:30:00,
2013-01-05 21:40:00,34.1,32.3,30.05,WSW,242,6.0,15.0,93,0.00,CLR,SKC,0.00,WeatherDisplay:10.37,2013-01-06 02:40:00,
2013-01-05 21:50:00,33.6,31.8,30.05,WSW,239,7.0,13.0,93,0.00,CLR,SKC,0.00,WeatherDisplay:10.37,2013-01-06 02:50:00,
2013-01-05 22:00:00,33.6,31.8,30.05,WSW,247,8.0,15.0,93,0.00,CLR,SKC,0.00,WeatherDisplay:10.37,2013-01-06 03:00:00,
2013-01-05 22:10:00,33.7,32.2,30.05,WSW,250,5.0,12.0,94,0.00,CLR,SKC,0.00,WeatherDisplay:10.37,2013-01-06 03:10:00,
2013-01-05 22:20:00,33.5,32.0,30.04,WSW,248,6.0,17.0,94,0.00,CLR,SKC,0.00,WeatherDisplay:10.37,2013-01-06 03:20:00,
2013-01-05 22:30:00,33.7,32.2,30.04,WSW,243,9.0,15.0,94,0.00,CLR,SKC,0.00,WeatherDisplay:10.37,2013-01-06 03:30:00,
2013-01-05 22:40:00,33.2,31.6,30.03,WSW,244,9.0,15.0,94,0.00,CLR,SKC,0.00,WeatherDisplay:10.37,2013-01-06 03:40:00,
2013-01-05 22:50:00,33.8,32.0,30.03,WSW,243,9.0,14.0,93,0.00,CLR,SKC,0.00,WeatherDisplay:10.37,2013-01-06 03:50:00,
2013-01-05 23:00:00,33.6,31.6,30.03,WSW,243,10.0,16.0,92,0.00,CLR,SKC,0.00,WeatherDisplay:10.37,2013-01-06 04:00:00,
2013-01-05 23:10:00,33.9,31.8,30.03,WSW,248,7.0,15.0,92,0.00,CLR,SKC,0.00,WeatherDisplay:10.37,2013-01-06 04:10:00,
2013-01-05 23:20:00,34.1,31.8,30.03,WSW,248,7.0,14.0,91,0.00,CLR,SKC,0.00,WeatherDisplay:10.37,2013-01-06 04:20:00,
2013-01-05 23:30:00,34.2,31.9,30.02,WSW,251,8.0,12.0,91,0.00,CLR,SKC,0.00,WeatherDisplay:10.37,2013-01-06 04:30:00,
2013-01-05 23:40:00,33.4,30.8,30.02,WSW,241,3.0,14.0,90,0.00,CLR,SKC,0.00,WeatherDisplay:10.37,2013-01-06 04:40:00,
2013-01-05 23:50:00,33.7,31.0,30.02,WSW,247,6.0,13.0,90,0.00,CLR,SKC,0.00,WeatherDisplay:10.37,2013-01-06 04:50:00,